Regional Weather Roundup
Issued by NWS

Home | Current Version | Previous Version | Graphics & Text | Print | Product List | Glossary On
Versions: 1 2 3 4 5 6 7 8 9 10 11 12 13 14 15 16 17 18 19 20 21 22 23 24 25 26 27 28 29 30 31 32 33 34 35 36 37 38 39 40 41 42 43 44 45 46 47 48 49 50
000
ASUS43 KOAX 220202
RWRNE

WEATHER ROUNDUP FOR NEBRASKA
NATIONAL WEATHER SERVICE OMAHA NE
900 PM CDT SAT APR 21 2018

NOTES: SATELLITE DATA IS BEING USED TO AUGMENT CLOUD COVER ABOVE
       12000 FEET.
       "FAIR" INDICATES FEW OR NO CLOUDS BELOW 12,000 FEET WITH NO
       SIGNIFICANT WEATHER AND/OR OBSTRUCTIONS TO VISIBILITY.


NEZ001>004-019>022-054>056-220300-
NEBRASKA PANHANDLE

CITY           SKY/WX    TMP DP  RH WIND       PRES   REMARKS
SCOTTSBLUFF    PTCLDY    41  38  89 E9        30.17R
ALLIANCE       CLOUDY    40  37  89 SE12      30.19R WCI  33
CHADRON        CLEAR     41  36  82 S10       30.17R
GORDON         CLOUDY    42  37  82 SE7       30.19S
KIMBALL        PTCLDY    36  35  95 S8        30.17R WCI  30
SIDNEY         CLOUDY    40  33  76 SE7       30.20R
$$

NEZ057>060-069>072-079>082-220300-
SOUTHWEST NEBRASKA

CITY           SKY/WX    TMP DP  RH WIND       PRES   REMARKS
NORTH PLATTE   CLOUDY    43  37  79 SE7       30.23S
IMPERIAL       CLOUDY    41  39  93 CALM      30.24R
LEXINGTON      CLOUDY    43  39  86 E5        30.25R
MCCOOK         CLOUDY    42  41  96 CALM      30.23S
OGALLALA       CLOUDY    42  39  91 CALM      30.23S
$$

NEZ005>010-023>029-035>040-094-220300-
NORTH CENTRAL NEBRASKA

CITY           SKY/WX    TMP DP  RH WIND       PRES   REMARKS
VALENTINE      CLOUDY    46  37  71 SE5       30.24R
AINSWORTH      CLOUDY    41  37  87 E5        30.24S
BROKEN BOW     CLOUDY    43  38  82 CALM      30.24R
O`NEILL        CLOUDY    45  38  75 CALM      30.26S
ORD            CLOUDY    44  37  76 NE6       30.25R
THEDFORD       CLOUDY    43  37  79 SE10      30.24R
$$

NEZ041-046>049-061>064-073>077-083>087-220300-
SOUTH CENTRAL NEBRASKA

CITY           SKY/WX    TMP DP  RH WIND       PRES   REMARKS
GRAND ISLAND   CLOUDY    44  38  79 NE6       30.24S
AURORA         LGT RAIN  43  40  90 CALM      30.24R
HASTINGS       CLOUDY    43  41  93 N5        30.23S
HEBRON         CLOUDY    46  42  87 CALM      30.22S
HOLDREGE       CLOUDY    42  40  96 NE6       30.23R
KEARNEY        CLOUDY    42  40  92 N7        30.24S
YORK           LGT RAIN  45  45 100 E6        30.25R
$$

NEZ011>018-030>034-042>045-220300-
NORTHEAST NEBRASKA

CITY           SKY/WX    TMP DP  RH WIND       PRES   REMARKS
NORFOLK        CLOUDY    46  37  71 CALM      30.23F
ALBION         DRIZZLE   46  37  70 NE8       30.26R
BLAIR          CLOUDY    50  34  53 NE12      30.23S
COLUMBUS       CLOUDY    46  33  60 N6        30.25R
FREMONT        CLOUDY    51  35  52 E3        30.24S
TEKAMAH        CLOUDY    48  32  53 NE6       30.25S
WAYNE          CLOUDY    48  32  53 E6        30.26S
$$

NEZ050>053-065>068-078-088>093-220300-
SOUTHEAST NEBRASKA

CITY           SKY/WX    TMP DP  RH WIND       PRES   REMARKS
LINCOLN        CLOUDY    49  36  61 NE5       30.22F
OMAHA EPPLEY   CLOUDY    53  31  42 NE12      30.24S
BEATRICE       CLOUDY    49  39  67 NE8       30.20S
FALLS CITY     CLOUDY    53  34  48 NE10      30.17S
NEBRASKA CITY  CLOUDY    53  30  41 E9        30.21S
PLATTSMOUTH    CLOUDY    52  32  46 NE8       30.23R
$$

NEZ044-045-051>053-067-220300-
OMAHA AREA

CITY           SKY/WX    TMP DP  RH WIND       PRES   REMARKS
OMAHA EPPLEY   CLOUDY    53  31  42 NE12      30.24S
BLAIR          CLOUDY    50  34  53 NE12      30.23S
FREMONT        CLOUDY    51  35  52 E3        30.24S
MILLARD        CLOUDY    54  34  45 E7        30.23S
OFFUTT AFB     MOCLDY    51  33  50 NE12      30.22S
PLATTSMOUTH    CLOUDY    52  32  46 NE8       30.23R
WAHOO          CLOUDY    48  31  51 N6        30.23R
$$




USA.gov is the U.S. government's official web portal to all federal, state and local government web resources and services.